GW3759 Weather Reports


Display with metric or nautical units.
time (UTC)temp
F
wind
direction
speed
MPH
gust
MPH
rain 1hr
in
rain 24hr
in
rain mn
in
humidity
%
barometer
mb
20260903160011 78 179 2.0 4.0 0.00 0.02 0.00 86 1018.2
20260903154507 78 180 1.0 3.0 0.00 0.02 0.00 87 1018.2
20260903153013 77 352 1.0 3.0 0.00 0.02 0.00 88 1018.4
20260903151511 76 183 0.0 2.0 0.00 0.02 0.00 90 1018.4
20260903150012 76 117 0.0 2.0 0.00 0.02 0.00 90 1018.2
20260903144529 76 313 1.0 4.0 0.00 0.02 0.00 90 1018.0
20260903143014 75 338 1.0 5.0 0.00 0.02 0.00 91 1018.0
20260903141512 75 342 0.0 5.0 0.00 0.02 0.00 92 1018.0
20260903140017 74 352 3.0 8.0 0.00 0.02 0.00 93 1018.3
20260903134511 74 313 1.0 6.0 0.00 0.02 0.00 93 1018.0
20260903133020 74 325 3.0 5.0 0.00 0.02 0.00 93 1018.0
20260903131515 74 346 4.0 9.0 0.00 0.02 0.00 94 1018.4
20260903130020 74 319 2.0 5.0 0.00 0.02 0.00 93 1018.4
20260903124518 73 302 2.0 11.0 0.00 0.02 0.00 94 1018.4
20260903123014 74 5 4.0 10.0 0.00 0.02 0.00 93 1018.5
20260903121507 73 165 0.0 4.0 0.00 0.02 0.00 95 1017.9
20260903120007 72 153 0.0 4.0 0.00 0.02 0.00 95 1017.6
20260903114504 72 120 1.0 4.0 0.00 0.02 0.00 95 1017.5
20260903113004 72 169 2.0 4.0 0.00 0.02 0.00 95 1017.4
20260903111517 71 182 1.0 4.0 0.00 0.02 0.00 95 1017.3
20260903110004 71 169 2.0 5.0 0.00 0.02 0.00 95 1017.0
20260903104505 72 168 2.0 4.0 0.00 0.02 0.00 95 1016.8
20260903103012 72 170 1.0 4.0 0.00 0.02 0.00 96 1016.8
20260903101505 71 146 0.0 1.0 0.00 0.02 0.00 95 1016.8
20260903100009 71 146 0.0 1.0 0.00 0.02 0.00 95 1016.7
20260903094504 71 146 0.0 2.0 0.00 0.02 0.00 95 1016.9
20260903093008 71 146 0.0 1.0 0.00 0.02 0.00 95 1016.9
20260903091515 72 146 0.0 0.0 0.00 0.02 0.00 95 1016.7
20260903090012 72 146 0.0 2.0 0.00 0.02 0.00 95 1016.9
20260903084516 72 146 0.0 1.0 0.00 0.02 0.00 94 1016.8
20260903083009 72 146 0.0 1.0 0.00 0.02 0.00 95 1016.6
20260903081516 72 146 0.0 0.0 0.00 0.02 0.00 95 1016.5
20260903080016 72 146 0.0 0.0 0.00 0.02 0.00 94 1016.5
20260903074526 72 146 0.0 2.0 0.00 0.02 0.00 95 1016.4
20260903073023 72 52 0.0 0.0 0.00 0.02 0.00 94 1016.3
20260903071508 72 52 0.0 0.0 0.00 0.02 0.00 94 1016.3
20260903070008 72 52 0.0 0.0 0.00 0.02 0.00 94 1016.5
20260903064523 72 52 0.0 0.0 0.00 0.02 0.00 94 1016.8
20260903063027 72 52 0.0 1.0 0.00 0.02 0.00 94 1016.9
20260903061503 72 52 0.0 0.0 0.00 0.02 0.00 94 1017.1
20260903060015 72 52 0.0 0.0 0.00 0.02 0.00 93 1017.2
20260903054520 73 53 0.0 1.0 0.00 0.02 0.00 93 1017.4
20260903053016 73 52 0.0 0.0 0.00 0.02 0.00 92 1017.5
20260903051505 73 53 0.0 1.0 0.00 0.02 0.00 92 1017.4
20260903050016 73 53 0.0 0.0 0.00 0.02 0.00 92 1017.4
20260903044510 73 53 0.0 1.0 0.00 0.02 0.00 92 1017.7
20260903043028 73 52 0.0 2.0 0.00 0.02 0.00 92 1017.7
20260903041529 73 76 0.0 2.0 0.00 0.02 0.00 92 1017.5
20260903040013 73 21 0.0 1.0 0.00 0.02 0.00 92 1017.5
20260903034511 73 21 0.0 1.0 0.00 0.02 0.02 91 1017.3
20260903033009 74 98 0.0 1.0 0.00 0.02 0.02 91 1017.3
20260903031505 74 98 0.0 2.0 0.00 0.02 0.02 92 1017.2
20260903030041 74 131 0.0 3.0 0.00 0.02 0.02 92 1017.1
20260903024510 74 94 0.0 1.0 0.00 0.02 0.02 92 1017.2
20260903023019 74 5 0.0 4.0 0.00 0.02 0.02 92 1017.3
20260903021516 74 140 0.0 3.0 0.00 0.02 0.02 92 1017.3
20260903020023 74 344 0.0 1.0 0.00 0.02 0.02 91 1017.4
20260903014508 74 344 0.0 0.0 0.00 0.02 0.02 91 1017.6
20260903013015 75 344 0.0 3.0 0.00 0.02 0.02 91 1017.8
20260903011520 75 83 0.0 2.0 0.00 0.02 0.02 92 1017.9
20260903010030 75 117 0.0 2.0 0.00 0.02 0.02 92 1018.1
20260903004524 75 333 0.0 2.0 0.00 0.02 0.02 91 1017.7
20260903003016 75 333 0.0 5.0 0.00 0.02 0.02 91 1017.6
20260903001514 76 347 1.0 3.0 0.00 0.02 0.02 91 1017.6
20260903000018 76 344 2.0 4.0 0.00 0.02 0.02 90 1017.4
20260902234509 76 333 1.0 2.0 0.00 0.02 0.02 89 1017.5
20260902233007 76 333 0.0 2.0 0.00 0.02 0.02 88 1017.7
20260902231516 77 333 0.0 1.0 0.00 0.02 0.02 88 1018.0
20260902230020 77 333 0.0 1.0 0.00 0.02 0.02 87 1017.9
20260902224516 76 333 0.0 1.0 0.00 0.02 0.02 87 1018.0
20260902223013 76 333 0.0 0.0 0.00 0.02 0.02 88 1017.9
20260902221508 76 333 0.0 0.0 0.00 0.02 0.02 88 1018.2
20260902220026 77 333 0.0 3.0 0.02 0.02 0.02 88 1017.7
20260902214545 77 333 0.0 3.0 0.02 0.02 0.02 90 1017.6
20260902213027 77 315 1.0 3.0 0.02 0.02 0.02 89 1017.8
20260902211502 78 11 1.0 3.0 0.02 0.02 0.02 86 1018.2
20260902210010 80 298 0.0 3.0 0.00 0.00 0.00 82 1018.1
20260902204504 82 285 0.0 2.0 0.00 0.00 0.00 77 1018.1
20260902203005 84 89 0.0 8.0 0.00 0.00 0.00 72 1018.4
20260902201521 87 303 2.0 7.0 0.00 0.00 0.00 70 1017.7
20260902200006 89 20 2.0 11.0 0.00 0.00 0.00 65 1018.0
20260902194503 91 55 1.0 7.0 0.00 0.00 0.00 65 1017.9
20260902193005 91 9 2.0 10.0 0.00 0.00 0.00 62 1018.0
20260902191516 91 76 1.0 7.0 0.00 0.00 0.00 64 1017.3
20260902190012 91 80 2.0 10.0 0.00 0.00 0.00 65 1017.3
20260902184515 91 236 0.0 6.0 0.00 0.00 0.00 64 1017.9
20260902183009 90 332 4.0 6.0 0.00 0.00 0.00 63 1017.7
20260902181504 90 309 0.0 3.0 0.00 0.00 0.00 64 1017.6
20260902180006 89 80 0.0 7.0 0.00 0.00 0.00 66 1017.9
20260902174511 89 281 0.0 5.0 0.00 0.00 0.00 67 1018.2
20260902173021 88 192 1.0 3.0 0.00 0.00 0.00 69 1018.3
20260902171504 88 138 0.0 4.0 0.00 0.00 0.00 71 1018.3
20260902170005 87 171 2.0 4.0 0.00 0.00 0.00 68 1018.4
20260902164504 87 277 0.0 2.0 0.00 0.00 0.00 71 1018.5
20260902163005 86 186 0.0 2.0 0.00 0.00 0.00 72 1018.5
20260902161524 85 186 0.0 2.0 0.00 0.00 0.00 71 1018.6